Regional Weather Roundup
Issued by NWS

Home | Current Version | Previous Version | Graphics & Text | Print | Product List | Glossary On
Versions: 1 2 3 4 5 6 7 8 9 10 11 12 13 14 15 16 17 18 19 20 21 22 23 24 25 26 27 28 29 30 31 32 33 34 35 36 37 38 39 40 41 42 43 44 45 46 47 48 49 50
000
ASUS45 KSLC 051510
RWRUT

UTAH REGIONAL WEATHER ROUNDUP
NATIONAL WEATHER SERVICE SALT LAKE CITY UT
900 AM MDT THU MAY 05 2016

UTZ001>011-023>025-051600-

NORTHERN UTAH

CITY           SKY/WX    TMP DP  RH WIND       PRES   REMARKS
BRIGHAM CITY   CLOUDY    57  42  58 NW5       29.95S
HILL AFB       NOT AVBL
LOGAN          CLOUDY    52  47  83 NW3       29.98F
OGDEN          CLOUDY    64  37  36 S7        29.95R
PROVO AIRPORT  PTSUNNY   64  37  36 CALM      29.97R
SALT LAKE CITY CLOUDY    67  36  31 E9        29.93S
VERNAL         CLOUDY    61  32  33 CALM      30.12S
WENDOVER       PTSUNNY   59  43  55 CALM      29.94R
HEBER CITY     CLOUDY    50  41  71 CALM      30.06R

$$

UTZ012>022-026-027-051600-

SOUTHERN/CENTRAL UTAH

CITY           SKY/WX    TMP DP  RH WIND       PRES   REMARKS
BLANDING       MOSUNNY   64  27  25 E6        30.25R
BRYCE CANYON   CLOUDY    56  27  32 S15G22    30.16R
CEDAR CITY     MOSUNNY   59  36  42 SW9       29.99R
DELTA          CLOUDY    57  41  54 CALM      29.95R
HANKSVILLE     PTSUNNY   57  36  44 CALM      30.06R
MILFORD        PTSUNNY   56  38  50 N5        29.96R
MOAB/CYNLANDS  PTSUNNY   70  30  22 E15       30.05S
PRICE          CLOUDY    60  33  36 CALM      30.12R
ST GEORGE      CLOUDY    68  41  37 NE6       29.91S
KANAB          PTSUNNY   64  36  34 CALM      30.05

$$

REGIONAL REPORTS     COLORADO/ARIZONA

CITY           SKY/WX    TMP DP  RH WIND       PRES   REMARKS
CRAIG, CO      CLOUDY    57  33  40 NE13      30.19F
GRAND JUNCTION SUNNY     62  32  32 SE18      30.12S
RIFLE          SUNNY     55  34  45 N5        30.19F
MONTROSE       SUNNY     64  29  26 SE9       30.20F
CORTEZ         SUNNY     67  29  24 CALM      30.19R
PAGE, AZ       CLOUDY    68  31  25 NW3       30.00R
GRAND CANYON   MOSUNNY   59  33  37 CALM      30.12R
KINGMAN        MOSUNNY   71  23  16 SE17      29.90F
FLAGSTAFF      MOSUNNY   56  35  45 CALM      30.15R

$$

REGIONAL REPORTS    NEVADA/IDAHO/WYOMING

CITY           SKY/WX    TMP DP  RH WIND       PRES   REMARKS
LAS VEGAS, NV  PTSUNNY   74  35  24 VRB3      29.78R
ELY            MOSUNNY   46  31  55 E3        29.99S
ELKO           CLOUDY    56  37  49 E3        29.90S
POCATELLO, ID  CLOUDY    54  43  66 E3        29.96S
BURLEY         PTSUNNY   55  45  68 CALM      29.92R
EVANSTON, WY   CLOUDY    55  29  36 E7        30.14S
ROCK SPRINGS   CLOUDY    55  35  47 NE3       30.17S
KEMMERER         N/A     54  32  43 CALM      30.18S

$$



USA.gov is the U.S. government's official web portal to all federal, state and local government web resources and services.